Location: Unspecified
(43.4354°N, 0.0000°E)
Time: 03:14:28
(UTC+00:00)

Transit 2A - Pass Details

Date: 23 June 2019
Orbit: 600 x 959 km, 66.7° (Epoch: 13 October)

Event Time Altitude Azimuth Distance (km) Brightness Sun altitude
Rises 08:35:13 0° 329° (NNW) 3,445 9.1 43.3°
Reaches altitude 10° 08:37:50 10° 332° (NNW) 2,450 8.5 43.8°
Maximum altitude 08:43:27 71° 57° (ENE) 819 7.3 44.8°
Drops below altitude 10° 08:48:27 10° 141° (SE) 2,192 9.1 45.7°
Sets 08:50:40 0° 144° (SE) 3,056 9.6 46.1°
